TimeEDT,TemperatureF,Dew PointF,Humidity,Sea Level PressureIn,VisibilityMPH,Wind Direction,Wind SpeedMPH,Gust SpeedMPH,PrecipitationIn,Events,Conditions,WindDirDegrees,DateUTC
12:53 AM,46.0,37.9,73,29.96,10.0,NW,5.8,-,N/A,,Overcast,310,2012-10-16 04:53:00
1:42 AM,46.4,35.6,66,29.96,10.0,NW,5.8,-,N/A,,Overcast,310,2012-10-16 05:42:00
1:53 AM,46.0,36.0,68,29.97,10.0,NW,4.6,-,N/A,,Overcast,320,2012-10-16 05:53:00
2:53 AM,46.0,34.0,63,29.96,10.0,North,6.9,-,N/A,,Overcast,10,2012-10-16 06:53:00
4:53 AM,45.0,34.0,65,29.96,10.0,NW,6.9,-,N/A,,Overcast,310,2012-10-16 08:53:00
5:32 AM,42.8,33.8,70,29.96,10.0,WNW,4.6,-,N/A,,Scattered Clouds,300,2012-10-16 09:32:00
5:53 AM,35.1,30.9,85,29.98,10.0,West,3.5,-,N/A,,Scattered Clouds,280,2012-10-16 09:53:00
6:53 AM,33.1,30.0,89,29.99,10.0,West,3.5,-,N/A,,Clear,280,2012-10-16 10:53:00
8:53 AM,37.9,35.1,89,30.00,10.0,Calm,Calm,-,N/A,,Clear,0,2012-10-16 12:53:00
9:53 AM,46.0,37.0,71,30.01,10.0,WSW,4.6,-,N/A,,Clear,250,2012-10-16 13:53:00
10:49 AM,48.2,35.6,62,29.98,10.0,North,-9999.0,-,N/A,,Clear,0,2012-10-16 14:49:00
10:53 AM,48.0,36.0,63,29.99,10.0,North,-9999.0,-,N/A,,Clear,0,2012-10-16 14:53:00
11:53 AM,50.0,36.0,59,29.98,10.0,SSW,5.8,-,N/A,,Clear,200,2012-10-16 15:53:00
12:53 PM,53.1,37.0,55,29.94,10.0,SSE,8.1,-,N/A,,Clear,160,2012-10-16 16:53:00
1:53 PM,55.9,37.9,51,29.91,10.0,South,8.1,-,N/A,,Clear,170,2012-10-16 17:53:00
2:53 PM,57.9,37.0,46,29.87,10.0,South,9.2,-,N/A,,Clear,190,2012-10-16 18:53:00
3:53 PM,59.0,36.0,42,29.85,10.0,SW,12.7,-,N/A,,Clear,220,2012-10-16 19:53:00
4:53 PM,60.1,36.0,41,29.83,10.0,SSW,11.5,-,N/A,,Clear,200,2012-10-16 20:53:00
5:11 PM,59.0,35.6,42,29.82,10.0,South,11.5,-,N/A,,Clear,180,2012-10-16 21:11:00
5:53 PM,57.9,36.0,44,29.81,10.0,South,9.2,-,N/A,,Clear,190,2012-10-16 21:53:00
6:53 PM,53.1,37.0,55,29.80,10.0,SE,5.8,-,N/A,,Clear,140,2012-10-16 22:53:00
7:53 PM,50.0,39.0,66,29.79,10.0,SE,4.6,-,N/A,,Clear,130,2012-10-16 23:53:00
8:53 PM,48.0,41.0,77,29.77,10.0,SE,5.8,-,N/A,,Clear,140,2012-10-17 00:53:00
9:53 PM,51.1,39.9,66,29.76,10.0,SSE,5.8,-,N/A,,Scattered Clouds,160,2012-10-17 01:53:00
10:53 PM,52.0,39.9,63,29.77,10.0,SE,4.6,-,0.00,,Overcast,130,2012-10-17 02:53:00
11:53 PM,48.9,43.0,80,29.78,10.0,Calm,Calm,-,0.00,,Overcast,0,2012-10-17 03:53:00